Regional Weather Roundup
Issued by NWS Midland/Odessa, TX

Skip options and go directly to product.
Home | Oldest Version | Next Version | Current Version | All | Text Only | Save Text | Print | Product List | Glossary On

Skip product version selection by date and time.   
660
ASUS44 KMAF 231410
RWRMAF
MIDLAND AREA WEATHER ROUNDUP
NATIONAL WEATHER SERVICE MIDLAND TX
900 AM CDT SAT JUL 23 2016

...IN SOUTHWEST TEXAS AND SOUTHEAST NEW MEXICO...

CITY           SKY/WX    TMP DP  RH WIND       PRES   REMARKS
ALPINE         SUNNY     79  54  42 S8        30.21R
ANDREWS        FAIR      81  59  47 S12G18    30.09R
ARTESIA        SUNNY     77  55  47 SE10      30.09R
BIG SPRING     SUNNY     81  64  56 S15       30.08S
CARLSBAD       SUNNY     79  56  45 SE7       30.06R
DRYDEN           N/A     82  64  54 SE9       30.02R
FORT STOCKTON  SUNNY     80  58  46 S13       30.06R
GUAD PASS      SUNNY     76  52  43 NE14      30.21R
HOBBS          SUNNY     77  57  50 SE15G21   30.11S
MARFA          SUNNY     74  55  51 SE5       30.20R
MIDLAND AIRPK  SUNNY     82  61  49 S10       30.07S
MIDLAND INTL   SUNNY     81  61  50 S13       30.06S
ODESSA         SUNNY     81  60  48 S14       30.08R
PECOS          SUNNY     80  57  45 E7        30.02S
PRESIDIO       FAIR      85  56  36 NE9       30.05R
SEMINOLE       SUNNY     81  58  45 S12G17    30.10R
SNYDER           N/A     80  63  56 S9        30.06S
WINK           SUNNY     81  60  48 SE18      30.03R
$$
...OTHER STATIONS IN TEXAS...

CITY           SKY/WX    TMP DP  RH WIND       PRES   REMARKS
ABILENE        SUNNY     84  66  54 S14       30.04R
AMARILLO       SUNNY     81  56  42 SW21G26   30.08R
AUSTIN         PTSUNNY   83  75  77 SW9       30.02R
BROWNSVILLE    SUNNY     85  77  77 S6        29.97R
CORPUS CHRISTI MOSUNNY   85  78  80 CALM      29.99R
DALLAS FTW     MOSUNNY   87  70  56 S9        30.00R
DEL RIO        SUNNY     83  71  67 SE13      29.99R
EL PASO        MOSUNNY   83  47  28 CALM      30.07R
HOUSTON INT    MOSUNNY   86  76  71 SW8       30.01R
LUBBOCK        SUNNY     80  57  45 SW13      30.09R
SAN ANGELO     SUNNY     82  68  62 S12       30.04R
SAN ANTONIO    MOSUNNY   81  72  74 S9        30.04R
WACO           SUNNY     84  71  65 S7        30.01R
WICHITA FALLS  NOT AVBL
$$
...OTHER LOCATIONS IN NEW MEXICO...

CITY           SKY/WX    TMP DP  RH WIND       PRES   REMARKS
ALAMAGORDO     SUNNY     82  43  24 CALM      30.10R
ALBUQUERQUE    MOSUNNY   72  51  47 S5        30.20R
CANNON AFB     SUNNY     77  55  47 S10       30.13S
CLOVIS         SUNNY     75  54  46 SW16      30.13S
HOLLOMAN AFB   SUNNY     81  44  27 N2        30.07R
ROSWELL        SUNNY     78  52  40 S14       30.08R
RUIDOSO          N/A     73  43  33 SW3       30.32R
SANTA FE       SUNNY     76  49  38 N8        30.25R
TRUTH OR CONSE SUNNY     81  48  31 NW8       30.14R
TUCUMCARI      SUNNY     82  52  35 SW21G26   30.08R
$$

USA.gov is the U.S. government's official web portal to all federal, state and local government web resources and services.